Location: The Saddle
(36.8333°N, 80.3417°W)
Time: 08:41:12
(UTC-04:00)

A-11 Canister half - Pass Details

Date: 28 May 2024
Orbit: 1515 x 1685 km, 47.2° (Epoch: 17 June)

Event Time Altitude Azimuth Distance (km) Brightness Sun altitude
Rises 04:50:41 0° 284° (WNW) 4,758 11.2 -13.2°
Reaches altitude 10° 04:54:02 10° 291° (WNW) 3,751 10.8 -12.7°
Maximum altitude 05:02:57 44° 2° (N) 2,009 10.0 -11.3°
Drops below altitude 10° 05:11:42 10° 73° (ENE) 3,676 12.3 -9.9°
Sets 05:14:57 0° 79° (E) 4,655 12.8 -9.3°
